Fullerton, CA

5:28 PM PDT on April 23, 2018 (GMT -0700)
Fullerton Municipal

Weather History for KFUL - October, 2014

Change the Weather History Date:

Thursday, October 16, 2014

  Actual Average Record
Temperature  
Mean Temperature 71 °F 68 °F  
Max Temperature 79 °F 79 °F 100 °F (2017)
Min Temperature 63 °F 57 °F 53 °F (2000)
Degree Days  
Heating Degree Days 0 1  
Month to date heating degree days 0 1  
Since 1 July heating degree days 0 2  
Cooling Degree Days 6 3  
Month to date cooling degree days 175 74  
Year to date cooling degree days 1960 1192  
Growing Degree Days 21 (Base 50)    
Moisture  
Dew Point 57 °F    
Average Humidity 63    
Maximum Humidity 84    
Minimum Humidity 42    
Precipitation  
Precipitation 0.00 in 0.03 in 0.06 in (2004)
Month to date precipitation 0.00 0.29  
Year to date precipitation 3.58 10.27  
Since 1 July precipitation 0.12  
Snow  
Snow 0.00 in - - ()
Month to date snowfall 0.0  
Year to date snowfall 0.0  
Snow Depth 0.00 in    
Sea Level Pressure  
Sea Level Pressure 29.96 in    
Wind  
Wind Speed 4 mph (South)    
Max Wind Speed 12 mph    
Max Gust Speed 17 mph    
Visibility 10 miles    
Events      
T = Trace of Precipitation, MM = Missing Value Source: NWS Daily Summary

Daily Weather History Graph

Daily Weather History Graph

Search for Another Location

Airport or City:

Astronomy

Oct. 16, 2014 Rise Set
Actual Time 6:57 AM PDT 6:16 PM PDT
Civil Twilight 6:32 AM PDT 6:41 PM PDT
Nautical Twilight 6:03 AM PDT 7:10 PM PDT
Astronomical Twilight 5:34 AM PDT 7:39 PM PDT
Moon 12:29 AM PDT (10/16) 2:14 PM PDT (10/16)
Length of Visible Light 12h 09m
Length of Day
11h 18m
Last Quarter, 41% of the Moon is Illuminated
Oct 16
Last Quarter
Oct 23
New
Oct 30
First Quarter
Nov 6
Full
Nov 14
Last Quarter

Hourly Weather History & Observations

Time (PDT) Temp. Dew Point Humidity Pressure Visibility Wind Dir Wind Speed Gust Speed Precip Events Conditions
12:53 AM 66.0 °F 57.9 °F 75% 29.97 in 10.0 mi Calm Calm - N/A   Clear
1:53 AM 64.9 °F 59.0 °F 81% 29.97 in 10.0 mi Calm Calm - N/A   Clear
2:53 AM 64.0 °F 57.0 °F 78% 29.96 in 10.0 mi East 4.6 mph - N/A   Clear
3:53 AM 63.0 °F 55.9 °F 78% 29.96 in 10.0 mi Calm Calm - N/A   Scattered Clouds
4:53 AM 63.0 °F 57.0 °F 81% 29.97 in 10.0 mi Calm Calm - N/A   Mostly Cloudy
5:53 AM 63.0 °F 57.0 °F 81% 29.98 in 10.0 mi East 3.5 mph - N/A   Scattered Clouds
6:53 AM 63.0 °F 57.0 °F 81% 29.99 in 10.0 mi Calm Calm - N/A   Scattered Clouds
7:53 AM 64.9 °F 57.9 °F 78% 29.99 in 10.0 mi East 3.5 mph - N/A   Scattered Clouds
8:53 AM 69.1 °F 57.9 °F 68% 30.01 in 10.0 mi East 5.8 mph - N/A   Scattered Clouds
9:53 AM 72.0 °F 57.0 °F 59% 30.01 in 10.0 mi Calm Calm - N/A   Clear
10:53 AM 73.0 °F 55.9 °F 55% 30.00 in 10.0 mi Calm Calm - N/A   Partly Cloudy
11:53 AM 77.0 °F 53.1 °F 43% 29.98 in 10.0 mi Calm Calm - N/A   Mostly Cloudy
12:53 PM 79.0 °F 53.1 °F 40% 29.96 in 10.0 mi Variable 4.6 mph - N/A   Clear
1:53 PM 77.0 °F 57.9 °F 52% 29.93 in 10.0 mi SSW 11.5 mph - N/A   Scattered Clouds
2:53 PM 78.1 °F 55.9 °F 46% 29.92 in 10.0 mi WSW 8.1 mph - N/A   Partly Cloudy
3:53 PM 78.1 °F 54.0 °F 43% 29.91 in 10.0 mi SW 8.1 mph - N/A   Clear
4:53 PM 75.9 °F 54.0 °F 46% 29.90 in 10.0 mi SSW 9.2 mph - N/A   Clear
5:53 PM 73.0 °F 55.9 °F 55% 29.91 in 10.0 mi Variable 5.8 mph - N/A   Clear
6:53 PM 71.1 °F 57.9 °F 63% 29.92 in 10.0 mi Variable 4.6 mph - N/A   Clear
7:53 PM 69.1 °F 57.9 °F 68% 29.94 in 10.0 mi WNW 3.5 mph - N/A   Clear
8:53 PM 68.0 °F 57.0 °F 68% 29.94 in 10.0 mi West 3.5 mph - N/A   Clear
9:53 PM 66.9 °F 57.9 °F 73% 29.94 in 10.0 mi Calm Calm - N/A   Clear
10:53 PM 64.9 °F 57.9 °F 78% 29.94 in 10.0 mi Calm Calm - N/A   Clear
11:53 PM 64.0 °F 57.0 °F 78% 29.94 in 10.0 mi Calm Calm - N/A   Clear